Regional Weather Roundup
Issued by NWS

Home | Current Version | Previous Version | Graphics & Text | Print | Product List | Glossary On
Versions: 1 2 3 4 5 6 7 8 9 10 11 12 13 14 15 16 17 18 19 20 21 22 23 24 25 26 27 28 29 30 31 32 33 34 35 36 37 38 39 40 41 42 43 44 45 46 47 48 49 50
000
ASUS43 KLMK 230010
RWRKY
KENTUCKY REGIONAL WEATHER ROUNDUP
NATIONAL WEATHER SERVICE LOUISVILLE KY
800 PM EDT MON SEP 22 2014

NOTE "FAIR" INDICATES FEW OR NO CLOUDS BELOW 12,000 FEET
WITH NO SIGNIFICANT WEATHER AND/OR OBSTRUCTIONS TO VISIBILITY.

KYZ001>023-026-027-061>063-070>075-230100-
WESTERN AND SOUTH CENTRAL KENTUCKY

CITY           SKY/WX    TMP DP  RH WIND       PRES   REMARKS
PADUCAH        CLEAR     67  47  48 N7        30.20R
HENDERSON      CLEAR     64  43  45 N5        30.22R
OWENSBORO      CLEAR     67  47  48 N3        30.21S
HOPKINSVILLE   CLEAR     62  44  53 N6        30.20R
BOWLING GREEN  CLEAR    N/A N/A N/A CALM      30.20R
GLASGOW        CLEAR     62  45  53 CALM      30.20R
$$

KYZ024-025-028>034-038-045-046-053-230100-
NORTH CENTRAL KENTUCKY

CITY           SKY/WX    TMP DP  RH WIND       PRES   REMARKS
LOUISVILLE/SDF CLEAR     63  44  50 NE7       30.22S
LOUISVILLE/LOU CLEAR     63  44  50 N5        30.23R
FORT KNOX      CLEAR     58  47  66 N3        30.21S
$$

KYZ035>037-039>044-047>052-055>060-089>105-230100-
NORTHEAST KENTUCKY

CITY           SKY/WX    TMP DP  RH WIND       PRES   REMARKS
LEXINGTON      CLEAR     60  45  57 N8        30.22R
COVINGTON      CLEAR     59  43  55 NW6       30.23R
FRANKFORT      CLEAR     59  46  62 CALM      30.22R
$$

KYZ054-064>069-076>088-106>120-230100-
SOUTHEAST KENTUCKY

CITY           SKY/WX    TMP DP  RH WIND       PRES   REMARKS
JACKSON        CLEAR     59  47  64 VRB5      30.21R
LONDON         CLEAR     60  48  64 NE3       30.21R
SOMERSET       CLEAR     59  43  55 NE3       30.21R
MIDDLESBORO    CLEAR     59  51  76 CALM      30.20R
MONTICELLO     CLEAR     56  50  80 CALM      30.21R
$$



USA.gov is the U.S. government's official web portal to all federal, state and local government web resources and services.